Regional Weather Roundup
Issued by NWS

Home | Current Version | Previous Version | Text Only | Print | Product List | Glossary Off
Versions: 1 2 3 4 5 6 7 8 9 10 11 12 13 14 15 16 17 18 19 20 21 22 23 24 25 26 27 28 29 30 31 32 33 34 35 36 37 38 39 40 41 42 43 44 45 46 47 48 49 50

000
ASUS43 KDMX 022307
RWRIA

WEATHER ROUNDUP FOR IOWA
NATIONAL WEATHER SERVICE DES MOINES IA
600 PM CDT SAT MAY 02 2015

NOTE: "FAIR" INDICATES FEW OR NO CLOUDS BELOW 12,000 FEET WITH NO
SIGNIFICANT WEATHER AND/OR OBSTRUCTIONS TO VISIBILITY.

* - THESE STATIONS ARE NOT NWS STATIONS...THUS NOT UNDER NWS
QUALITY CONTROL.  THEY ALSO DO NOT REPORT WEATHER SUCH
AS PRECIPITATION OR FOG.

IAZ001>003-012>014-020>022-031>034-043>046-030000-
   NORTHWEST IOWA

CITY           SKY/WX    TMP DP  RH WIND       PRES   REMARKS
CARROLL *      SUNNY     68  55  64 S23G32    29.83S
CHEROKEE *     SUNNY     72  55  56 S14G22    29.80S
DENISON *      SUNNY     70  57  64 S18G28    29.80F
LE MARS *      SUNNY     75  55  50 S16       29.78F
ORANGE CITY *  SUNNY     73  54  49 S13G22    29.79S
SHELDON *      MOSUNNY   77  54  44 S15G22    29.77F
SIOUX CITY     SUNNY     78  54  43 S12G17    29.77F
SPENCER        MOSUNNY   76  53  44 S17       29.80S
STORM LAKE *   SUNNY     72  54  53 S20G26    29.82S
$$

IAZ055>058-069>071-079>083-090>094-030000-
   SOUTHWEST IOWA

CITY           SKY/WX    TMP DP  RH WIND       PRES   REMARKS
ATLANTIC *     SUNNY     68  54  60 S17G28    29.85F
AUDUBON *      SUNNY     68  57  68 S15       29.86F
CLARINDA *     SUNNY     68  57  68 SE12G21   29.87F
COUNCIL BLFS * SUNNY     70  61  73 S16       29.82F
CRESTON *      SUNNY     64  55  72 SE20      29.89F
HARLAN  *      SUNNY     70  57  64 S18G28    29.86F
LAMONI         MOSUNNY   64  55  72 SE10      29.91F
RED OAK *      SUNNY     70  55  60 S17       29.85F
SHENANDOAH *   SUNNY     70  57  64 SE21      29.85S
$$

IAZ047>049-059>061-072>074-084-030000-
   CENTRAL IOWA

CITY           SKY/WX    TMP DP  RH WIND       PRES   REMARKS
AMES           PTSUNNY   66  52  60 S14G26    29.88S
ANKENY *       CLOUDY    64  54  68 S9G17     29.90R
CHARITON *     MOSUNNY   61  57  88 S14G20    29.92F
DES MOINES     PTSUNNY   66  55  67 S20       29.90R
GRINNELL*      MOSUNNY   66  54  63 S10       29.92F
KNOXVILLE *    CLOUDY    59  55  88 SE8       29.91S
MARSHALLTOWN   SUNNY     69  52  54 S18       29.89S
PELLA *        HVY RAIN  59  59 100 S12       29.93S
PERRY *        PTSUNNY   70  52  52 S26       29.86F
$$

IAZ004>006-015-016-023>025-035-036-030000-
   NORTH CENTRAL IOWA

CITY           SKY/WX    TMP DP  RH WIND       PRES   REMARKS
ALGONA *       MOSUNNY   75  50  41 S22       29.82S
CLARION *      SUNNY     75  50  41 S22G29    29.85S
ESTHERVILLE    SUNNY     75  49  39 S20G28    29.79F
FORT DODGE *   SUNNY     72  52  49 S16G29    29.86R
MASON CITY     SUNNY     74  50  42 S15G24    29.85S
FOREST CITY *  SUNNY     73  46  38 S17G26    29.83S
IOWA FALLS *     N/A     72  50  46 S20       29.88F
$$

IAZ007>011-017>019-026>030-037>042-050>054-066-030000-
   NORTHEAST IOWA

CITY           SKY/WX    TMP DP  RH WIND       PRES   REMARKS
CEDAR RAPIDS   PTSUNNY   70  52  52 SW16G24   29.94S
CHARLES CITY * MOSUNNY   73  50  43 SW16G23   29.87S
CLINTON *        N/A     73  41  31 W20       29.96S
DECORAH *      MOSUNNY   73  48  40 S15G22    29.87S
DUBUQUE        PTSUNNY   72  45  37 SW21      29.92S
MONTICELLO *   MOSUNNY   72  50  46 SW18G26   29.92S
OELWEIN *      MOSUNNY   70  50  49 SW17G24   29.91S
WATERLOO       MOSUNNY   71  51  49 SW16      29.89S
$$

IAZ064-065-067-068-078-030000-
   EAST CENTRAL IOWA

CITY           SKY/WX    TMP DP  RH WIND       PRES   REMARKS
DAVENPORT      PTSUNNY   74  37  26 SW16      29.95S
IOWA CITY      PTSUNNY   68  51  54 S9        29.96S
MT. PLEASANT * CLOUDY    64  54  68 S3        29.96S
MUSCATINE *    CLOUDY    70  52  52 SW12      29.95F
QUAD CITIES    PTSUNNY   73  38  27 W13       29.94S
$$

IAZ062-063-075>077-085>089-095>099-030000-
   SOUTHEAST IOWA

CITY           SKY/WX    TMP DP  RH WIND       PRES   REMARKS
BURLINGTON     CLOUDY    68  47  46 SW10      29.97F
FAIRFIELD *    SUNNY     61  55  82 S15       29.92F
FORT MADISON * MOSUNNY   66  52  59 SW9       29.99S
KEOKUK *       PTSUNNY   64  54  68 SW13      29.99R
OSKALOOSA *    DRIZZLE   59  55  88 CALM      29.93F
CENTERVILLE *  SUNNY     59  59 100 SE9       29.97F
OTTUMWA        RAIN      58  57  97 S17       29.92R FOG
WASHINGTON *   MOSUNNY   66  55  68 SW10      29.95S
$$

ABBREVIATIONS USED IN REMARKS
   TC - TEMPERATURES IN CELSIUS
  WCI - WIND CHILL INDEX
   HX - HEAT INDEX
  VSB - VISIBILITY
$$



USA.gov is the U.S. government's official web portal to all federal, state and local government web resources and services.